Time,TemperatureF,DewpointF,PressureIn,WindDirection,WindDirectionDegrees,WindSpeedMPH,WindSpeedGustMPH,Humidity,HourlyPrecipIn,Conditions,Clouds,dailyrainin,SoftwareType,DateUTC
2013-02-24 00:00:00,25.1,23.1,29.92,SSW,207,5.0,7.0,92,0.00,,---,0.00,VWS V14.01,2013-02-24 05:00:00,
2013-02-24 00:05:00,25.1,23.1,29.92,SW,222,6.0,6.0,92,0.00,,---,0.00,VWS V14.01,2013-02-24 05:05:00,
2013-02-24 00:10:00,25.1,23.4,29.92,SW,224,5.0,7.0,93,0.00,,---,0.00,VWS V14.01,2013-02-24 05:10:00,
2013-02-24 00:16:00,25.1,23.4,29.92,SW,221,5.0,6.0,93,0.00,,---,0.00,VWS V14.01,2013-02-24 05:16:00,
2013-02-24 00:21:00,25.1,23.4,29.92,SW,223,5.0,6.0,93,0.00,,---,0.00,VWS V14.01,2013-02-24 05:21:00,
2013-02-24 00:26:00,25.0,23.3,29.92,SSW,194,4.0,6.0,93,0.00,,---,0.00,VWS V14.01,2013-02-24 05:26:00,
2013-02-24 00:31:00,25.0,23.3,29.92,SW,225,5.0,6.0,93,0.00,,---,0.00,VWS V14.01,2013-02-24 05:31:00,
2013-02-24 00:36:00,25.0,23.3,29.92,SW,215,4.0,5.0,93,0.00,,---,0.00,VWS V14.01,2013-02-24 05:36:00,
2013-02-24 00:41:00,25.1,23.6,29.93,SW,214,3.0,7.0,94,0.00,,---,0.00,VWS V14.01,2013-02-24 05:41:00,
2013-02-24 00:46:00,25.1,23.6,29.93,SW,221,3.0,6.0,94,0.00,,---,0.00,VWS V14.01,2013-02-24 05:46:00,
2013-02-24 00:51:00,25.1,23.6,29.93,SW,226,6.0,6.0,94,0.00,,---,0.00,VWS V14.01,2013-02-24 05:51:00,
2013-02-24 00:56:00,25.1,23.6,29.93,SW,217,4.0,6.0,94,0.00,,---,0.00,VWS V14.01,2013-02-24 05:56:00,
2013-02-24 01:01:00,25.1,23.6,29.93,SW,227,5.0,6.0,94,0.00,,---,0.00,VWS V14.01,2013-02-24 06:01:00,
2013-02-24 01:06:00,25.1,23.6,29.93,SW,227,5.0,5.0,94,0.00,,---,0.00,VWS V14.01,2013-02-24 06:06:00,
2013-02-24 01:11:00,25.1,23.6,29.93,SW,227,4.0,5.0,94,0.00,,---,0.00,VWS V14.01,2013-02-24 06:11:00,
2013-02-24 01:16:00,25.1,23.6,29.93,SW,223,4.0,5.0,94,0.00,,---,0.00,VWS V14.01,2013-02-24 06:16:00,
2013-02-24 01:21:00,25.1,23.6,29.93,SW,216,5.0,5.0,94,0.00,,---,0.00,VWS V14.01,2013-02-24 06:21:00,
2013-02-24 01:26:00,25.1,23.6,29.93,SW,216,4.0,7.0,94,0.00,,---,0.00,VWS V14.01,2013-02-24 06:26:00,
2013-02-24 01:31:00,25.2,23.7,29.93,SW,216,3.0,5.0,94,0.00,,---,0.00,VWS V14.01,2013-02-24 06:31:00,
2013-02-24 01:36:00,25.2,23.7,29.94,SW,221,4.0,5.0,94,0.00,,---,0.00,VWS V14.01,2013-02-24 06:36:00,
2013-02-24 01:41:00,25.2,23.7,29.94,SW,232,3.0,5.0,94,0.00,,---,0.00,VWS V14.01,2013-02-24 06:41:00,
2013-02-24 01:46:00,25.2,23.7,29.94,SW,214,3.0,6.0,94,0.00,,---,0.00,VWS V14.01,2013-02-24 06:46:00,
2013-02-24 01:51:00,25.3,23.8,29.94,SW,222,3.0,4.0,94,0.00,,---,0.00,VWS V14.01,2013-02-24 06:51:00,
2013-02-24 01:56:00,25.3,23.8,29.94,SW,224,3.0,5.0,94,0.00,,---,0.00,VWS V14.01,2013-02-24 06:56:00,
2013-02-24 02:01:00,25.3,23.8,29.94,SW,221,4.0,6.0,94,0.00,,---,0.00,VWS V14.01,2013-02-24 07:01:00,
2013-02-24 02:06:00,25.4,23.9,29.94,SSW,209,5.0,6.0,94,0.00,,---,0.00,VWS V14.01,2013-02-24 07:06:00,
2013-02-24 02:11:00,25.4,23.9,29.94,SW,216,4.0,5.0,94,0.00,,---,0.00,VWS V14.01,2013-02-24 07:11:00,
2013-02-24 02:16:00,25.5,24.0,29.95,SW,217,4.0,4.0,94,0.00,,---,0.00,VWS V14.01,2013-02-24 07:16:00,
2013-02-24 02:21:00,25.5,24.3,29.95,SW,217,3.0,4.0,95,0.00,,---,0.00,VWS V14.01,2013-02-24 07:21:00,
2013-02-24 02:26:00,25.6,24.4,29.95,SW,217,2.0,4.0,95,0.00,,---,0.00,VWS V14.01,2013-02-24 07:26:00,
2013-02-24 02:31:00,25.6,24.4,29.95,SW,217,3.0,4.0,95,0.00,,---,0.00,VWS V14.01,2013-02-24 07:31:00,
2013-02-24 02:36:00,25.6,24.4,29.95,SW,229,5.0,5.0,95,0.00,,---,0.00,VWS V14.01,2013-02-24 07:36:00,
2013-02-24 02:41:00,25.6,24.4,29.95,SW,229,3.0,4.0,95,0.00,,---,0.00,VWS V14.01,2013-02-24 07:41:00,
2013-02-24 02:46:00,25.6,24.4,29.95,WSW,242,2.0,4.0,95,0.00,,---,0.00,VWS V14.01,2013-02-24 07:46:00,
2013-02-24 02:51:00,25.6,24.4,29.95,WSW,242,4.0,5.0,95,0.00,,---,0.00,VWS V14.01,2013-02-24 07:51:00,
2013-02-24 02:56:00,25.6,24.4,29.95,SW,224,3.0,4.0,95,0.00,,---,0.00,VWS V14.01,2013-02-24 07:56:00,
2013-02-24 03:01:00,25.6,24.4,29.95,SW,224,2.0,4.0,95,0.00,,---,0.00,VWS V14.01,2013-02-24 08:01:00,
2013-02-24 03:06:00,25.6,24.4,29.95,SW,224,4.0,5.0,95,0.00,,---,0.00,VWS V14.01,2013-02-24 08:06:00,
2013-02-24 03:11:00,25.6,24.4,29.95,SW,224,3.0,4.0,95,0.00,,---,0.00,VWS V14.01,2013-02-24 08:11:00,
2013-02-24 03:16:00,25.6,24.4,29.95,SW,224,4.0,4.0,95,0.00,,---,0.00,VWS V14.01,2013-02-24 08:16:00,
2013-02-24 03:21:00,25.6,24.4,29.95,SSW,204,3.0,4.0,95,0.00,,---,0.00,VWS V14.01,2013-02-24 08:21:00,
2013-02-24 03:26:00,25.6,24.4,29.95,SSW,208,3.0,5.0,95,0.00,,---,0.00,VWS V14.01,2013-02-24 08:26:00,
2013-02-24 03:31:00,25.6,24.4,29.95,SW,214,4.0,5.0,95,0.00,,---,0.00,VWS V14.01,2013-02-24 08:31:00,
2013-02-24 03:36:00,25.6,24.4,29.95,SSW,210,4.0,5.0,95,0.00,,---,0.00,VWS V14.01,2013-02-24 08:36:00,
2013-02-24 03:41:00,25.6,24.4,29.95,SW,219,3.0,5.0,95,0.00,,---,0.00,VWS V14.01,2013-02-24 08:41:00,
2013-02-24 03:46:00,25.6,24.4,29.95,SW,217,3.0,5.0,95,0.00,,---,0.00,VWS V14.01,2013-02-24 08:46:00,
2013-02-24 03:51:00,25.6,24.4,29.95,SW,219,3.0,4.0,95,0.00,,---,0.00,VWS V14.01,2013-02-24 08:51:00,
2013-02-24 03:56:00,25.6,24.4,29.95,SW,219,3.0,5.0,95,0.00,,---,0.00,VWS V14.01,2013-02-24 08:56:00,
2013-02-24 04:01:00,25.6,24.4,29.95,SW,219,3.0,4.0,95,0.00,,---,0.00,VWS V14.01,2013-02-24 09:01:00,
2013-02-24 04:06:00,25.6,24.4,29.96,SW,219,2.0,4.0,95,0.00,,---,0.00,VWS V14.01,2013-02-24 09:06:00,
2013-02-24 04:11:00,25.6,24.4,29.96,SW,219,4.0,4.0,95,0.00,,---,0.00,VWS V14.01,2013-02-24 09:11:00,
2013-02-24 04:16:00,25.6,24.4,29.95,SW,219,3.0,3.0,95,0.00,,---,0.00,VWS V14.01,2013-02-24 09:16:00,
2013-02-24 04:21:00,25.6,24.4,29.95,SW,219,1.0,3.0,95,0.00,,---,0.00,VWS V14.01,2013-02-24 09:21:00,
2013-02-24 04:26:00,25.6,24.4,29.96,SW,219,0.0,0.0,95,0.00,,---,0.00,VWS V14.01,2013-02-24 09:26:00,
2013-02-24 04:31:00,25.6,24.4,29.95,SW,219,0.0,0.0,95,0.00,,---,0.00,VWS V14.01,2013-02-24 09:31:00,
2013-02-24 04:36:00,25.6,24.4,29.96,SW,219,0.0,2.0,95,0.00,,---,0.00,VWS V14.01,2013-02-24 09:36:00,
2013-02-24 04:41:00,25.6,24.4,29.96,SW,219,0.0,0.0,95,0.00,,---,0.00,VWS V14.01,2013-02-24 09:41:00,
2013-02-24 04:46:00,25.6,24.4,29.96,SW,219,0.0,0.0,95,0.00,,---,0.00,VWS V14.01,2013-02-24 09:46:00,
2013-02-24 04:51:00,25.5,24.3,29.96,SW,219,0.0,0.0,95,0.00,,---,0.00,VWS V14.01,2013-02-24 09:51:00,
2013-02-24 04:56:00,25.6,24.4,29.96,SW,219,0.0,0.0,95,0.00,,---,0.00,VWS V14.01,2013-02-24 09:56:00,
2013-02-24 05:01:00,25.5,24.3,29.96,SW,219,0.0,0.0,95,0.00,,---,0.00,VWS V14.01,2013-02-24 10:01:00,
2013-02-24 05:06:00,25.4,24.2,29.96,SW,219,0.0,0.0,95,0.00,,---,0.00,VWS V14.01,2013-02-24 10:06:00,
2013-02-24 05:11:00,25.4,24.2,29.96,SW,219,0.0,0.0,95,0.00,,---,0.00,VWS V14.01,2013-02-24 10:11:00,
2013-02-24 05:16:00,25.4,23.9,29.96,SW,219,2.0,3.0,94,0.00,,---,0.00,VWS V14.01,2013-02-24 10:16:00,
2013-02-24 05:21:00,25.3,24.1,29.97,SW,219,2.0,3.0,95,0.00,,---,0.00,VWS V14.01,2013-02-24 10:21:00,
2013-02-24 05:26:00,25.3,23.8,29.97,SW,219,2.0,2.0,94,0.00,,---,0.00,VWS V14.01,2013-02-24 10:26:00,
2013-02-24 05:31:00,25.2,23.7,29.97,SW,219,3.0,4.0,94,0.00,,---,0.00,VWS V14.01,2013-02-24 10:31:00,
2013-02-24 05:36:00,25.3,24.1,29.98,SW,223,3.0,5.0,95,0.00,,---,0.00,VWS V14.01,2013-02-24 10:36:00,
2013-02-24 05:41:00,25.4,24.2,29.97,South,185,7.0,8.0,95,0.00,,---,0.00,VWS V14.01,2013-02-24 10:41:00,
2013-02-24 05:46:00,25.6,24.4,29.97,SSW,193,6.0,7.0,95,0.00,,---,0.00,VWS V14.01,2013-02-24 10:46:00,
2013-02-24 05:51:00,25.8,24.6,29.97,SSW,196,6.0,7.0,95,0.00,,---,0.00,VWS V14.01,2013-02-24 10:51:00,
2013-02-24 05:56:00,26.0,24.5,29.97,SSW,202,5.0,6.0,94,0.00,,---,0.00,VWS V14.01,2013-02-24 10:56:00,
2013-02-24 06:01:00,26.1,24.6,29.98,SSW,202,5.0,5.0,94,0.00,,---,0.00,VWS V14.01,2013-02-24 11:01:00,
2013-02-24 06:06:00,26.2,24.7,29.98,SW,216,4.0,7.0,94,0.00,,---,0.00,VWS V14.01,2013-02-24 11:06:00,
2013-02-24 06:11:00,26.3,24.8,29.98,SW,236,7.0,7.0,94,0.00,,---,0.00,VWS V14.01,2013-02-24 11:11:00,
2013-02-24 06:16:00,26.3,24.6,29.98,SW,217,5.0,7.0,93,0.00,,---,0.00,VWS V14.01,2013-02-24 11:16:00,
2013-02-24 06:21:00,26.4,24.6,29.98,SW,227,6.0,7.0,93,0.00,,---,0.00,VWS V14.01,2013-02-24 11:21:00,
2013-02-24 06:27:00,26.5,24.8,29.99,SW,217,7.0,8.0,93,0.00,,---,0.00,VWS V14.01,2013-02-24 11:27:00,
2013-02-24 06:32:00,26.5,24.8,29.99,SSW,213,6.0,8.0,93,0.00,,---,0.00,VWS V14.01,2013-02-24 11:32:00,
2013-02-24 06:37:00,26.6,24.9,29.99,SW,223,5.0,7.0,93,0.00,,---,0.00,VWS V14.01,2013-02-24 11:37:00,
2013-02-24 06:42:00,26.6,24.6,29.99,SW,218,4.0,6.0,92,0.00,,---,0.00,VWS V14.01,2013-02-24 11:42:00,
2013-02-24 06:47:00,26.7,25.0,29.99,SW,225,6.0,6.0,93,0.00,,---,0.00,VWS V14.01,2013-02-24 11:47:00,
2013-02-24 06:52:00,26.7,24.7,29.99,SW,224,4.0,7.0,92,0.00,,---,0.00,VWS V14.01,2013-02-24 11:52:00,
2013-02-24 06:57:00,26.8,24.8,29.99,SW,230,4.0,5.0,92,0.00,,---,0.00,VWS V14.01,2013-02-24 11:57:00,
2013-02-24 07:02:00,26.9,24.9,29.99,SW,227,5.0,7.0,92,0.00,,---,0.00,VWS V14.01,2013-02-24 12:02:00,
2013-02-24 07:07:00,26.9,24.9,29.99,SW,234,5.0,7.0,92,0.00,,---,0.00,VWS V14.01,2013-02-24 12:07:00,
2013-02-24 07:12:00,27.0,25.0,29.99,SW,223,7.0,7.0,92,0.00,,---,0.00,VWS V14.01,2013-02-24 12:12:00,
2013-02-24 07:17:00,27.1,25.1,29.99,SW,236,6.0,8.0,92,0.00,,---,0.00,VWS V14.01,2013-02-24 12:17:00,
2013-02-24 07:22:00,27.2,24.9,29.99,SW,225,6.0,6.0,91,0.00,,---,0.00,VWS V14.01,2013-02-24 12:22:00,
2013-02-24 07:27:00,27.2,24.9,29.99,SW,236,6.0,7.0,91,0.00,,---,0.00,VWS V14.01,2013-02-24 12:27:00,
2013-02-24 07:32:00,27.4,25.1,30.00,SW,236,6.0,8.0,91,0.00,,---,0.00,VWS V14.01,2013-02-24 12:32:00,
2013-02-24 07:37:00,27.5,25.2,30.00,WSW,242,7.0,8.0,91,0.00,,---,0.00,VWS V14.01,2013-02-24 12:37:00,
2013-02-24 07:42:00,27.6,25.1,30.01,WSW,245,5.0,7.0,90,0.00,,---,0.00,VWS V14.01,2013-02-24 12:42:00,
2013-02-24 07:47:00,27.6,25.1,30.00,WSW,244,6.0,6.0,90,0.00,,---,0.00,VWS V14.01,2013-02-24 12:47:00,
2013-02-24 07:52:00,27.7,25.2,30.01,WSW,244,3.0,7.0,90,0.00,,---,0.00,VWS V14.01,2013-02-24 12:52:00,
2013-02-24 07:57:00,27.7,25.2,30.01,WSW,239,5.0,7.0,90,0.00,,---,0.00,VWS V14.01,2013-02-24 12:57:00,
2013-02-24 08:02:00,27.8,25.2,30.01,WSW,239,4.0,6.0,90,0.00,,---,0.00,VWS V14.01,2013-02-24 13:02:00,
2013-02-24 08:07:00,27.8,25.2,30.01,WSW,239,5.0,6.0,90,0.00,,---,0.00,VWS V14.01,2013-02-24 13:07:00,
2013-02-24 08:12:00,27.9,25.4,30.01,WSW,239,5.0,7.0,90,0.00,,---,0.00,VWS V14.01,2013-02-24 13:12:00,
2013-02-24 08:17:00,28.0,25.5,30.02,SW,233,6.0,8.0,90,0.00,,---,0.00,VWS V14.01,2013-02-24 13:17:00,
2013-02-24 08:22:00,28.1,25.5,30.02,WSW,244,7.0,8.0,90,0.00,,---,0.00,VWS V14.01,2013-02-24 13:22:00,
2013-02-24 08:27:00,28.3,25.8,30.02,WSW,241,6.0,7.0,90,0.00,,---,0.00,VWS V14.01,2013-02-24 13:27:00,
2013-02-24 08:32:00,28.4,25.9,30.02,WSW,245,4.0,7.0,90,0.00,,---,0.00,VWS V14.01,2013-02-24 13:32:00,
2013-02-24 08:37:00,28.5,26.0,30.03,WSW,241,6.0,8.0,90,0.00,,---,0.00,VWS V14.01,2013-02-24 13:37:00,
2013-02-24 08:42:00,28.7,26.1,30.03,WSW,241,6.0,7.0,90,0.00,,---,0.00,VWS V14.01,2013-02-24 13:42:00,
2013-02-24 08:47:00,28.8,26.2,30.03,WSW,247,5.0,8.0,90,0.00,,---,0.00,VWS V14.01,2013-02-24 13:47:00,
2013-02-24 08:52:00,28.8,26.5,30.03,WSW,247,5.0,7.0,91,0.00,,---,0.00,VWS V14.01,2013-02-24 13:52:00,
2013-02-24 08:57:00,28.9,26.6,30.03,WSW,247,6.0,7.0,91,0.00,,---,0.00,VWS V14.01,2013-02-24 13:57:00,
2013-02-24 09:02:00,29.0,26.7,30.03,WSW,247,4.0,5.0,91,0.00,,---,0.00,VWS V14.01,2013-02-24 14:02:00,
2013-02-24 09:07:00,29.0,26.7,30.04,West,275,3.0,5.0,91,0.00,,---,0.00,VWS V14.01,2013-02-24 14:07:00,
2013-02-24 09:12:00,29.0,26.7,30.04,West,275,2.0,4.0,91,0.00,,---,0.00,VWS V14.01,2013-02-24 14:12:00,
2013-02-24 09:17:00,29.1,26.8,30.04,West,269,4.0,4.0,91,0.00,,---,0.00,VWS V14.01,2013-02-24 14:17:00,
2013-02-24 09:22:00,29.2,26.9,30.04,West,269,5.0,5.0,91,0.00,,---,0.00,VWS V14.01,2013-02-24 14:22:00,
2013-02-24 09:27:00,29.3,27.3,30.05,WSW,240,4.0,6.0,92,0.00,,---,0.00,VWS V14.01,2013-02-24 14:27:00,
2013-02-24 09:32:00,29.3,27.3,30.05,WSW,240,5.0,7.0,92,0.00,,---,0.00,VWS V14.01,2013-02-24 14:32:00,
2013-02-24 09:37:00,29.4,27.4,30.05,WSW,240,5.0,5.0,92,0.00,,---,0.00,VWS V14.01,2013-02-24 14:37:00,
2013-02-24 09:42:00,29.5,27.5,30.05,WSW,240,4.0,5.0,92,0.00,,---,0.00,VWS V14.01,2013-02-24 14:42:00,
2013-02-24 09:47:00,29.6,27.6,30.05,WSW,240,4.0,5.0,92,0.00,,---,0.00,VWS V14.01,2013-02-24 14:47:00,
2013-02-24 09:52:00,29.8,27.8,30.05,WSW,240,5.0,6.0,92,0.00,,---,0.00,VWS V14.01,2013-02-24 14:52:00,
2013-02-24 09:57:00,29.9,27.9,30.06,WSW,240,5.0,5.0,92,0.00,,---,0.00,VWS V14.01,2013-02-24 14:57:00,
2013-02-24 10:02:00,30.1,28.1,30.06,WSW,240,4.0,5.0,92,0.00,,---,0.00,VWS V14.01,2013-02-24 15:02:00,
2013-02-24 10:07:00,30.2,28.2,30.06,WSW,240,3.0,6.0,92,0.00,,---,0.00,VWS V14.01,2013-02-24 15:07:00,
2013-02-24 10:12:00,30.4,28.4,30.06,WSW,240,5.0,6.0,92,0.00,,---,0.00,VWS V14.01,2013-02-24 15:12:00,
2013-02-24 10:17:00,30.6,28.6,30.06,WSW,240,4.0,5.0,92,0.00,,---,0.00,VWS V14.01,2013-02-24 15:17:00,
2013-02-24 10:22:00,30.8,28.8,30.06,WSW,240,7.0,7.0,92,0.00,,---,0.00,VWS V14.01,2013-02-24 15:22:00,
2013-02-24 10:27:00,31.0,29.0,30.06,WSW,240,5.0,6.0,92,0.00,,---,0.00,VWS V14.01,2013-02-24 15:27:00,
2013-02-24 10:32:00,31.2,28.9,30.06,WSW,240,5.0,7.0,91,0.00,,---,0.00,VWS V14.01,2013-02-24 15:32:00,
2013-02-24 10:37:00,31.5,29.2,30.06,WSW,240,5.0,6.0,91,0.00,,---,0.00,VWS V14.01,2013-02-24 15:37:00,
2013-02-24 10:42:00,31.7,29.4,30.07,WSW,240,5.0,7.0,91,0.00,,---,0.00,VWS V14.01,2013-02-24 15:42:00,
2013-02-24 10:47:00,32.0,29.7,30.07,WSW,240,5.0,6.0,91,0.00,,---,0.00,VWS V14.01,2013-02-24 15:47:00,
2013-02-24 10:52:00,32.2,29.6,30.07,WSW,240,4.0,6.0,90,0.00,,---,0.00,VWS V14.01,2013-02-24 15:52:00,
2013-02-24 10:57:00,32.4,29.8,30.07,WSW,258,7.0,7.0,90,0.00,,---,0.00,VWS V14.01,2013-02-24 15:57:00,
2013-02-24 11:02:00,32.6,30.0,30.07,WSW,244,5.0,6.0,90,0.00,,---,0.00,VWS V14.01,2013-02-24 16:02:00,
2013-02-24 11:07:00,32.8,30.2,30.07,WSW,247,6.0,7.0,90,0.00,,---,0.00,VWS V14.01,2013-02-24 16:07:00,
2013-02-24 11:12:00,33.0,30.1,30.07,WSW,246,4.0,6.0,89,0.00,,---,0.00,VWS V14.01,2013-02-24 16:12:00,
2013-02-24 11:17:00,33.2,30.3,30.07,WSW,246,5.0,6.0,89,0.00,,---,0.00,VWS V14.01,2013-02-24 16:17:00,
2013-02-24 11:22:00,33.4,30.5,30.07,West,277,2.0,7.0,89,0.00,,---,0.00,VWS V14.01,2013-02-24 16:22:00,
2013-02-24 11:27:00,33.6,30.4,30.07,West,263,5.0,6.0,88,0.00,,---,0.00,VWS V14.01,2013-02-24 16:27:00,
2013-02-24 11:32:00,33.8,30.4,30.07,West,277,5.0,7.0,87,0.01,,---,0.01,VWS V14.01,2013-02-24 16:32:00,
2013-02-24 11:37:00,33.8,29.8,30.07,NW,304,5.0,8.0,85,0.01,,---,0.01,VWS V14.01,2013-02-24 16:37:00,
2013-02-24 11:42:00,33.9,29.6,30.07,WNW,282,7.0,8.0,84,0.02,,---,0.02,VWS V14.01,2013-02-24 16:42:00,
2013-02-24 11:47:00,33.9,29.3,30.07,NW,309,7.0,10.0,83,0.02,,---,0.02,VWS V14.01,2013-02-24 16:47:00,
2013-02-24 11:52:00,33.9,29.0,30.07,WNW,295,6.0,7.0,82,0.02,,---,0.02,VWS V14.01,2013-02-24 16:52:00,
2013-02-24 11:57:00,34.0,29.1,30.08,West,273,7.0,8.0,82,0.03,,---,0.03,VWS V14.01,2013-02-24 16:57:00,
2013-02-24 12:02:00,34.1,29.2,30.07,WNW,295,5.0,11.0,82,0.03,,---,0.03,VWS V14.01,2013-02-24 17:02:00,
2013-02-24 12:07:00,34.1,29.2,30.08,West,281,9.0,9.0,82,0.03,,---,0.03,VWS V14.01,2013-02-24 17:07:00,
2013-02-24 12:12:00,34.2,29.0,30.08,West,267,9.0,10.0,81,0.04,,---,0.04,VWS V14.01,2013-02-24 17:12:00,
2013-02-24 12:17:00,34.2,28.7,30.08,WNW,300,7.0,11.0,80,0.04,,---,0.04,VWS V14.01,2013-02-24 17:17:00,
2013-02-24 12:22:00,34.2,28.4,30.08,West,277,9.0,12.0,79,0.04,,---,0.04,VWS V14.01,2013-02-24 17:22:00,
2013-02-24 12:27:00,34.1,28.3,30.08,West,279,8.0,10.0,79,0.04,,---,0.04,VWS V14.01,2013-02-24 17:27:00,
2013-02-24 12:32:00,34.0,28.5,30.08,WNW,285,7.0,10.0,80,0.04,,---,0.04,VWS V14.01,2013-02-24 17:32:00,
2013-02-24 12:37:00,33.9,28.4,30.08,WNW,290,9.0,10.0,80,0.03,,---,0.04,VWS V14.01,2013-02-24 17:37:00,
2013-02-24 12:42:00,33.9,29.0,30.08,West,260,10.0,12.0,82,0.02,,---,0.04,VWS V14.01,2013-02-24 17:42:00,
2013-02-24 12:47:00,33.7,29.1,30.08,West,265,8.0,10.0,83,0.03,,---,0.05,VWS V14.01,2013-02-24 17:47:00,
2013-02-24 12:52:00,33.8,29.2,30.08,West,274,8.0,14.0,83,0.03,,---,0.05,VWS V14.01,2013-02-24 17:52:00,
2013-02-24 12:57:00,34.1,29.5,30.08,West,268,11.0,11.0,83,0.03,,---,0.05,VWS V14.01,2013-02-24 17:57:00,
2013-02-24 13:02:00,34.2,29.3,30.09,West,269,8.0,11.0,82,0.02,,---,0.05,VWS V14.01,2013-02-24 18:02:00,
2013-02-24 13:07:00,34.2,28.7,30.09,WNW,295,12.0,12.0,80,0.02,,---,0.05,VWS V14.01,2013-02-24 18:07:00,
2013-02-24 13:12:00,34.3,29.1,30.08,West,273,9.0,10.0,81,0.02,,---,0.06,VWS V14.01,2013-02-24 18:12:00,
2013-02-24 13:17:00,34.3,29.1,30.08,West,274,11.0,12.0,81,0.02,,---,0.06,VWS V14.01,2013-02-24 18:17:00,
2013-02-24 13:22:00,34.4,28.6,30.09,West,267,11.0,14.0,79,0.02,,---,0.06,VWS V14.01,2013-02-24 18:22:00,
2013-02-24 13:27:00,34.4,28.6,30.08,WNW,300,10.0,13.0,79,0.02,,---,0.06,VWS V14.01,2013-02-24 18:27:00,
2013-02-24 13:32:00,34.6,28.8,30.08,WNW,283,9.0,11.0,79,0.02,,---,0.06,VWS V14.01,2013-02-24 18:32:00,
2013-02-24 13:37:00,34.8,28.3,30.08,WNW,294,9.0,13.0,77,0.02,,---,0.06,VWS V14.01,2013-02-24 18:37:00,
2013-02-24 13:42:00,34.7,28.5,30.08,WNW,283,9.0,12.0,78,0.02,,---,0.06,VWS V14.01,2013-02-24 18:42:00,
2013-02-24 13:47:00,34.9,28.4,30.08,WNW,286,9.0,11.0,77,0.02,,---,0.06,VWS V14.01,2013-02-24 18:47:00,
2013-02-24 13:52:00,35.0,28.2,30.08,WNW,284,8.0,11.0,76,0.01,,---,0.06,VWS V14.01,2013-02-24 18:52:00,
2013-02-24 13:57:00,35.3,28.5,30.08,West,268,7.0,12.0,76,0.01,,---,0.06,VWS V14.01,2013-02-24 18:57:00,
2013-02-24 14:02:00,35.5,28.4,30.08,WNW,289,8.0,15.0,75,0.01,,---,0.06,VWS V14.01,2013-02-24 19:02:00,
2013-02-24 14:07:00,35.5,28.0,30.08,West,280,8.0,11.0,74,0.01,,---,0.06,VWS V14.01,2013-02-24 19:07:00,
2013-02-24 14:12:00,35.5,28.0,30.08,WNW,292,12.0,13.0,74,0.01,,---,0.06,VWS V14.01,2013-02-24 19:12:00,
2013-02-24 14:17:00,35.5,27.7,30.08,West,271,8.0,14.0,73,0.00,,---,0.06,VWS V14.01,2013-02-24 19:17:00,
2013-02-24 14:22:00,35.5,28.0,30.08,West,278,9.0,11.0,74,0.00,,---,0.06,VWS V14.01,2013-02-24 19:22:00,
2013-02-24 14:27:00,35.5,28.0,30.08,West,265,9.0,12.0,74,0.00,,---,0.06,VWS V14.01,2013-02-24 19:27:00,
2013-02-24 14:32:00,35.4,27.6,30.08,WNW,284,9.0,11.0,73,0.00,,---,0.06,VWS V14.01,2013-02-24 19:32:00,
2013-02-24 14:37:00,35.6,28.8,30.08,WSW,252,12.0,13.0,76,0.00,,---,0.06,VWS V14.01,2013-02-24 19:37:00,
2013-02-24 14:42:00,35.8,27.7,30.09,West,265,12.0,14.0,72,0.00,,---,0.06,VWS V14.01,2013-02-24 19:42:00,
2013-02-24 14:47:00,35.7,27.6,30.09,WSW,256,8.0,13.0,72,0.00,,---,0.06,VWS V14.01,2013-02-24 19:47:00,
2013-02-24 14:52:00,35.7,27.9,30.09,West,265,8.0,11.0,73,0.00,,---,0.06,VWS V14.01,2013-02-24 19:52:00,
2013-02-24 14:57:00,35.5,28.0,30.09,West,268,12.0,12.0,74,0.00,,---,0.06,VWS V14.01,2013-02-24 19:57:00,
2013-02-24 15:02:00,35.5,27.7,30.09,West,269,5.0,10.0,73,0.00,,---,0.06,VWS V14.01,2013-02-24 20:02:00,
2013-02-24 15:07:00,35.6,27.8,30.09,West,265,8.0,13.0,73,0.00,,---,0.06,VWS V14.01,2013-02-24 20:07:00,
2013-02-24 15:12:00,35.7,27.6,30.09,WNW,284,6.0,11.0,72,0.00,,---,0.06,VWS V14.01,2013-02-24 20:12:00,
2013-02-24 15:17:00,35.8,28.0,30.09,West,268,8.0,14.0,73,0.00,,---,0.06,VWS V14.01,2013-02-24 20:17:00,
2013-02-24 15:22:00,35.9,27.8,30.10,WSW,250,9.0,12.0,72,0.00,,---,0.06,VWS V14.01,2013-02-24 20:22:00,
2013-02-24 15:27:00,35.8,27.3,30.10,WSW,251,10.0,14.0,71,0.00,,---,0.06,VWS V14.01,2013-02-24 20:27:00,
2013-02-24 15:32:00,35.6,27.5,30.10,WSW,250,9.0,14.0,72,0.00,,---,0.06,VWS V14.01,2013-02-24 20:32:00,
2013-02-24 15:37:00,35.3,27.2,30.10,West,272,9.0,14.0,72,0.00,,---,0.06,VWS V14.01,2013-02-24 20:37:00,
2013-02-24 15:42:00,34.6,26.5,30.10,West,265,10.0,12.0,72,0.00,,---,0.06,VWS V14.01,2013-02-24 20:42:00,
2013-02-24 15:47:00,34.3,26.9,30.11,West,272,8.0,12.0,74,0.00,,---,0.06,VWS V14.01,2013-02-24 20:47:00,
2013-02-24 15:52:00,34.4,27.0,30.10,West,281,13.0,13.0,74,0.00,,---,0.06,VWS V14.01,2013-02-24 20:52:00,
2013-02-24 15:57:00,34.4,26.7,30.10,West,269,11.0,15.0,73,0.00,,---,0.06,VWS V14.01,2013-02-24 20:57:00,
2013-02-24 16:02:00,34.6,27.2,30.11,West,263,9.0,12.0,74,0.00,,---,0.06,VWS V14.01,2013-02-24 21:02:00,
2013-02-24 16:07:00,34.6,27.2,30.11,West,265,9.0,11.0,74,0.00,,---,0.06,VWS V14.01,2013-02-24 21:07:00,
2013-02-24 16:12:00,34.7,27.0,30.11,West,271,8.0,13.0,73,0.00,,---,0.06,VWS V14.01,2013-02-24 21:12:00,
2013-02-24 16:17:00,34.8,27.4,30.11,West,259,12.0,12.0,74,0.00,,---,0.06,VWS V14.01,2013-02-24 21:17:00,
2013-02-24 16:22:00,34.9,27.1,30.11,West,278,9.0,11.0,73,0.00,,---,0.06,VWS V14.01,2013-02-24 21:22:00,
2013-02-24 16:27:00,34.9,27.1,30.11,West,266,8.0,12.0,73,0.00,,---,0.06,VWS V14.01,2013-02-24 21:27:00,
2013-02-24 16:32:00,34.7,27.3,30.11,West,275,11.0,15.0,74,0.00,,---,0.06,VWS V14.01,2013-02-24 21:32:00,
2013-02-24 16:37:00,34.7,27.3,30.12,West,280,10.0,13.0,74,0.00,,---,0.06,VWS V14.01,2013-02-24 21:37:00,
2013-02-24 16:42:00,34.7,27.3,30.11,West,270,11.0,12.0,74,0.00,,---,0.06,VWS V14.01,2013-02-24 21:42:00,
2013-02-24 16:47:00,34.5,27.4,30.12,West,266,12.0,14.0,75,0.00,,---,0.06,VWS V14.01,2013-02-24 21:47:00,
2013-02-24 16:53:00,34.3,27.2,30.12,West,271,10.0,12.0,75,0.00,,---,0.06,VWS V14.01,2013-02-24 21:53:00,
2013-02-24 16:58:00,34.2,27.4,30.12,West,266,9.0,12.0,76,0.00,,---,0.06,VWS V14.01,2013-02-24 21:58:00,
2013-02-24 17:03:00,34.1,27.7,30.12,West,270,8.0,11.0,77,0.00,,---,0.06,VWS V14.01,2013-02-24 22:03:00,
2013-02-24 17:08:00,34.1,27.7,30.12,West,268,10.0,12.0,77,0.00,,---,0.06,VWS V14.01,2013-02-24 22:08:00,
2013-02-24 17:13:00,34.0,27.2,30.12,West,277,8.0,13.0,76,0.00,,---,0.06,VWS V14.01,2013-02-24 22:13:00,
2013-02-24 17:18:00,34.0,27.2,30.12,West,272,8.0,14.0,76,0.00,,---,0.06,VWS V14.01,2013-02-24 22:18:00,
2013-02-24 17:23:00,33.9,27.5,30.12,West,273,6.0,9.0,77,0.00,,---,0.06,VWS V14.01,2013-02-24 22:23:00,
2013-02-24 17:28:00,33.8,27.4,30.12,West,267,8.0,8.0,77,0.00,,---,0.06,VWS V14.01,2013-02-24 22:28:00,
2013-02-24 17:33:00,33.6,27.2,30.12,West,265,7.0,12.0,77,0.00,,---,0.06,VWS V14.01,2013-02-24 22:33:00,
2013-02-24 17:38:00,33.4,27.3,30.12,West,267,8.0,10.0,78,0.00,,---,0.06,VWS V14.01,2013-02-24 22:38:00,
2013-02-24 17:43:00,33.2,27.1,30.12,West,263,7.0,10.0,78,0.00,,---,0.06,VWS V14.01,2013-02-24 22:43:00,
2013-02-24 17:48:00,33.0,26.9,30.13,West,263,6.0,9.0,78,0.00,,---,0.06,VWS V14.01,2013-02-24 22:48:00,
2013-02-24 17:53:00,32.9,27.1,30.13,West,273,5.0,6.0,79,0.00,,---,0.06,VWS V14.01,2013-02-24 22:53:00,
2013-02-24 17:58:00,32.7,26.9,30.13,West,273,6.0,7.0,79,0.00,,---,0.06,VWS V14.01,2013-02-24 22:58:00,
2013-02-24 18:03:00,32.6,26.8,30.13,WNW,284,5.0,8.0,79,0.00,,---,0.06,VWS V14.01,2013-02-24 23:03:00,
2013-02-24 18:08:00,32.6,26.8,30.13,West,279,6.0,10.0,79,0.00,,---,0.06,VWS V14.01,2013-02-24 23:08:00,
2013-02-24 18:13:00,32.5,27.0,30.14,West,279,6.0,9.0,80,0.00,,---,0.06,VWS V14.01,2013-02-24 23:13:00,
2013-02-24 18:18:00,32.3,26.8,30.14,West,279,6.0,8.0,80,0.00,,---,0.06,VWS V14.01,2013-02-24 23:18:00,
2013-02-24 18:23:00,32.0,26.5,30.13,West,274,6.0,7.0,80,0.00,,---,0.06,VWS V14.01,2013-02-24 23:23:00,
2013-02-24 18:28:00,31.6,26.5,30.14,West,274,5.0,6.0,81,0.00,,---,0.06,VWS V14.01,2013-02-24 23:28:00,
2013-02-24 18:33:00,31.1,26.0,30.14,West,274,5.0,5.0,81,0.00,,---,0.06,VWS V14.01,2013-02-24 23:33:00,
2013-02-24 18:38:00,30.8,26.0,30.14,West,274,4.0,5.0,82,0.00,,---,0.06,VWS V14.01,2013-02-24 23:38:00,
2013-02-24 18:43:00,30.6,26.1,30.14,West,274,3.0,5.0,83,0.00,,---,0.06,VWS V14.01,2013-02-24 23:43:00,
2013-02-24 18:48:00,30.4,25.9,30.14,West,274,3.0,4.0,83,0.00,,---,0.06,VWS V14.01,2013-02-24 23:48:00,
2013-02-24 18:53:00,30.2,26.0,30.14,West,274,3.0,6.0,84,0.00,,---,0.06,VWS V14.01,2013-02-24 23:53:00,
2013-02-24 18:58:00,30.2,26.0,30.14,West,274,3.0,4.0,84,0.00,,---,0.06,VWS V14.01,2013-02-24 23:58:00,
2013-02-24 19:03:00,30.0,25.8,30.15,West,274,1.0,3.0,84,0.00,,---,0.06,VWS V14.01,2013-02-25 00:03:00,
2013-02-24 19:08:00,29.8,25.6,30.15,West,274,3.0,3.0,84,0.00,,---,0.06,VWS V14.01,2013-02-25 00:08:00,
2013-02-24 19:13:00,29.7,25.8,30.15,West,274,3.0,3.0,85,0.00,,---,0.06,VWS V14.01,2013-02-25 00:13:00,
2013-02-24 19:18:00,29.7,25.8,30.15,West,274,3.0,3.0,85,0.00,,---,0.06,VWS V14.01,2013-02-25 00:18:00,
2013-02-24 19:23:00,29.6,25.6,30.15,West,274,1.0,2.0,85,0.00,,---,0.06,VWS V14.01,2013-02-25 00:23:00,
2013-02-24 19:28:00,29.5,25.8,30.15,West,274,2.0,3.0,86,0.00,,---,0.06,VWS V14.01,2013-02-25 00:28:00,
2013-02-24 19:33:00,29.4,25.7,30.15,West,274,3.0,3.0,86,0.00,,---,0.06,VWS V14.01,2013-02-25 00:33:00,
2013-02-24 19:38:00,29.4,26.0,30.16,West,274,1.0,3.0,87,0.00,,---,0.06,VWS V14.01,2013-02-25 00:38:00,
2013-02-24 19:43:00,29.3,25.6,30.16,West,274,0.0,2.0,86,0.00,,---,0.06,VWS V14.01,2013-02-25 00:43:00,
2013-02-24 19:48:00,29.2,25.5,30.16,West,274,0.0,0.0,86,0.00,,---,0.06,VWS V14.01,2013-02-25 00:48:00,
2013-02-24 19:53:00,29.0,25.6,30.16,West,274,0.0,0.0,87,0.00,,---,0.06,VWS V14.01,2013-02-25 00:53:00,
2013-02-24 19:58:00,28.9,25.5,30.16,West,274,0.0,0.0,87,0.00,,---,0.06,VWS V14.01,2013-02-25 00:58:00,
2013-02-24 20:03:00,28.8,25.4,30.16,West,274,0.0,0.0,87,0.00,,---,0.06,VWS V14.01,2013-02-25 01:03:00,
2013-02-24 20:08:00,28.4,24.8,30.16,West,274,2.0,2.0,86,0.00,,---,0.06,VWS V14.01,2013-02-25 01:08:00,
2013-02-24 20:13:00,28.1,24.7,30.16,West,274,3.0,3.0,87,0.00,,---,0.06,VWS V14.01,2013-02-25 01:13:00,
2013-02-24 20:18:00,27.9,24.8,30.16,West,274,2.0,3.0,88,0.00,,---,0.06,VWS V14.01,2013-02-25 01:18:00,
2013-02-24 20:23:00,27.7,24.6,30.16,West,274,1.0,3.0,88,0.00,,---,0.06,VWS V14.01,2013-02-25 01:23:00,
2013-02-24 20:28:00,27.4,24.3,30.17,West,274,1.0,2.0,88,0.00,,---,0.06,VWS V14.01,2013-02-25 01:28:00,
2013-02-24 20:33:00,27.2,24.1,30.17,West,274,2.0,3.0,88,0.00,,---,0.06,VWS V14.01,2013-02-25 01:33:00,
2013-02-24 20:38:00,27.1,24.0,30.16,West,274,0.0,3.0,88,0.00,,---,0.06,VWS V14.01,2013-02-25 01:38:00,
2013-02-24 20:43:00,26.8,23.7,30.17,West,274,0.0,0.0,88,0.00,,---,0.06,VWS V14.01,2013-02-25 01:43:00,
2013-02-24 20:48:00,26.5,23.4,30.17,West,274,0.0,0.0,88,0.00,,---,0.06,VWS V14.01,2013-02-25 01:48:00,
2013-02-24 20:53:00,26.2,23.1,30.17,West,274,0.0,0.0,88,0.00,,---,0.06,VWS V14.01,2013-02-25 01:53:00,
2013-02-24 20:58:00,26.1,23.0,30.18,West,274,0.0,0.0,88,0.00,,---,0.06,VWS V14.01,2013-02-25 01:58:00,
2013-02-24 21:03:00,25.8,22.7,30.18,West,274,0.0,0.0,88,0.00,,---,0.06,VWS V14.01,2013-02-25 02:03:00,
2013-02-24 21:08:00,25.6,22.8,30.17,West,274,0.0,0.0,89,0.00,,---,0.06,VWS V14.01,2013-02-25 02:08:00,
2013-02-24 21:13:00,25.3,22.5,30.18,West,274,0.0,0.0,89,0.00,,---,0.06,VWS V14.01,2013-02-25 02:13:00,
2013-02-24 21:18:00,25.2,22.7,30.17,West,274,0.0,0.0,90,0.00,,---,0.06,VWS V14.01,2013-02-25 02:18:00,
2013-02-24 21:23:00,25.1,22.6,30.18,West,274,0.0,0.0,90,0.00,,---,0.06,VWS V14.01,2013-02-25 02:23:00,
2013-02-24 21:28:00,24.9,22.4,30.17,West,274,0.0,0.0,90,0.00,,---,0.06,VWS V14.01,2013-02-25 02:28:00,
2013-02-24 21:33:00,24.3,21.5,30.17,West,274,0.0,0.0,89,0.00,,---,0.06,VWS V14.01,2013-02-25 02:33:00,
2013-02-24 21:38:00,24.0,21.2,30.17,West,274,0.0,0.0,89,0.00,,---,0.06,VWS V14.01,2013-02-25 02:38:00,
2013-02-24 21:43:00,23.5,20.7,30.18,West,274,0.0,0.0,89,0.00,,---,0.06,VWS V14.01,2013-02-25 02:43:00,
2013-02-24 21:48:00,22.9,20.1,30.17,West,274,0.0,0.0,89,0.00,,---,0.06,VWS V14.01,2013-02-25 02:48:00,
2013-02-24 21:53:00,22.7,20.2,30.18,West,274,0.0,0.0,90,0.00,,---,0.06,VWS V14.01,2013-02-25 02:53:00,
2013-02-24 21:58:00,22.6,20.1,30.18,West,274,0.0,0.0,90,0.00,,---,0.06,VWS V14.01,2013-02-25 02:58:00,
2013-02-24 22:03:00,22.5,20.0,30.18,West,274,0.0,0.0,90,0.00,,---,0.06,VWS V14.01,2013-02-25 03:03:00,
2013-02-24 22:08:00,22.3,20.1,30.18,West,274,0.0,0.0,91,0.00,,---,0.06,VWS V14.01,2013-02-25 03:08:00,
2013-02-24 22:13:00,22.2,20.0,30.17,West,274,0.0,0.0,91,0.00,,---,0.06,VWS V14.01,2013-02-25 03:13:00,
2013-02-24 22:18:00,22.1,19.9,30.18,West,274,0.0,0.0,91,0.00,,---,0.06,VWS V14.01,2013-02-25 03:18:00,
2013-02-24 22:23:00,21.9,19.7,30.18,West,274,0.0,0.0,91,0.00,,---,0.06,VWS V14.01,2013-02-25 03:23:00,
2013-02-24 22:28:00,21.5,19.3,30.18,West,274,2.0,2.0,91,0.00,,---,0.06,VWS V14.01,2013-02-25 03:28:00,
2013-02-24 22:33:00,21.0,18.8,30.18,West,274,0.0,1.0,91,0.00,,---,0.06,VWS V14.01,2013-02-25 03:33:00,
2013-02-24 22:38:00,20.8,18.6,30.17,West,274,0.0,0.0,91,0.00,,---,0.06,VWS V14.01,2013-02-25 03:38:00,
2013-02-24 22:43:00,20.5,18.3,30.18,West,274,0.0,0.0,91,0.00,,---,0.06,VWS V14.01,2013-02-25 03:43:00,
2013-02-24 22:48:00,20.3,18.1,30.18,West,274,0.0,0.0,91,0.00,,---,0.06,VWS V14.01,2013-02-25 03:48:00,
2013-02-24 22:53:00,20.0,17.8,30.18,West,274,0.0,0.0,91,0.00,,---,0.06,VWS V14.01,2013-02-25 03:53:00,
2013-02-24 22:58:00,19.9,17.7,30.18,West,274,0.0,0.0,91,0.00,,---,0.06,VWS V14.01,2013-02-25 03:58:00,
2013-02-24 23:03:00,19.9,18.0,30.18,West,274,1.0,2.0,92,0.00,,---,0.06,VWS V14.01,2013-02-25 04:03:00,
2013-02-24 23:08:00,19.7,17.8,30.17,West,274,0.0,2.0,92,0.00,,---,0.06,VWS V14.01,2013-02-25 04:08:00,
2013-02-24 23:13:00,19.6,17.7,30.18,West,274,0.0,2.0,92,0.00,,---,0.06,VWS V14.01,2013-02-25 04:13:00,
2013-02-24 23:19:00,19.4,17.5,30.18,West,274,0.0,0.0,92,0.00,,---,0.06,VWS V14.01,2013-02-25 04:19:00,
2013-02-24 23:24:00,19.4,19.4,30.18,West,274,0.0,0.0,100,0.00,,---,0.06,VWS V14.01,2013-02-25 04:24:00,
2013-02-24 23:29:00,19.4,17.5,30.18,West,274,0.0,0.0,92,0.00,,---,0.06,VWS V14.01,2013-02-25 04:29:00,
2013-02-24 23:34:00,19.4,17.7,30.18,West,274,0.0,0.0,93,0.00,,---,0.06,VWS V14.01,2013-02-25 04:34:00,
2013-02-24 23:39:00,19.3,17.6,30.18,West,274,0.0,0.0,93,0.00,,---,0.06,VWS V14.01,2013-02-25 04:39:00,
2013-02-24 23:44:00,19.2,17.5,30.18,West,274,0.0,0.0,93,0.00,,---,0.06,VWS V14.01,2013-02-25 04:44:00,
2013-02-24 23:49:00,19.1,17.4,30.17,West,274,0.0,0.0,93,0.00,,---,0.06,VWS V14.01,2013-02-25 04:49:00,
2013-02-24 23:54:00,18.7,16.8,30.17,West,274,0.0,0.0,92,0.00,,---,0.06,VWS V14.01,2013-02-25 04:54:00,
2013-02-24 23:59:00,18.5,16.8,30.18,West,274,0.0,0.0,93,0.00,,---,0.00,VWS V14.01,2013-02-25 04:59:00,